Погода в Лаукуве

Поиск расширенной информации на нашем сайте:

Полезная информация:

Новости сайта



02.01.2020
Опубликован Долгосрочный прогноз погоды по городам России и ближнего зарубежья на январь 2020 года.
Карты: Прогноз на январь и февраль 2020 года, Сравнение прогнозируемой аномалии приземной температуры воздуха на январь 2020 года по разным моделям.




Погода в Лаукуве - сегодня

Время (UTC), дата Ветер
(°,м/с) 
Видим.   Явления Облачность Т
(°С)
Тd
(°С)
f(%) Тe
(°С)
Pmin
(гПа)
dP
(гПа)
Po
(мм)
O2
(г/м3)
Тmin Tmax R s Состояние
почвы
12 16.04.21 050 (СВ) 8-12{12}  20000 м    9/0 средняя 
[Ac As]
+11.1 +0.7 49 +9  1017.2  -0.4  748  289           
15 16.04.21 060 (СВ) 9-11{14}  20000 м    6/0 средняя, верхняя 
[Ac trans|Ci sp]
+12.3 +1.7 48 +11  1017.1  0.1  748  288           
18 16.04.21 040 (СВ) 3-4{12}  20000 м    4/0 верхняя 
[Ci sp]
+9.4 +2.5 62 +9  1018.7  1.3  749  291    +12.7       
21 16.04.21 040 (СВ) 5-6{06}  20000 м    3/0 верхняя 
[Ci sp]
+7.5 +2.5 71 +6  1019.9  750  294           
00 17.04.21 040 (СВ) 4-6{07}  20000 м    ясно 
+6.9 +2.3 72 +6  1020.1  0.2  750  294           
03 17.04.21 050 (СВ) 5-6{06}  20000 м    9/0 средняя, верхняя 
[Ac trans|Ci sp]
+5 +1.8 80 +3  1020.5  0.2  750  296           
06 17.04.21 060 (СВ) 5-6{08}  20000 м  {дождь}  9/0 средняя 
[Ac As]
+8.7 +2.4 65 +7  1020.8  0.6  750  293  +4.9    0.0    влажная 
09 17.04.21 060 (СВ) 4-7{08}  20000 м    5/3 1000 м средняя, верхняя 
[Cu med, cong|Ac trans|Ci sp]
+12.6 +5.2 61 +12  1021  0.4  751  288           
12 17.04.21 060 (СВ) 6-8{10}  20000 м    8/6 1350 м верхняя 
[Cu med, cong|Ci sp]
+15 +5 51 +14  1020.5  -0.3  750  286           
15 17.04.21 060 (СВ) 5-7{09}  20000 м    6/5 1000 м верхняя 
[Cu med, cong|Ci sp]
+16.4 +3.9 43 +16  1019.9  -0.5  750  285           
18 17.04.21 030 (СВ) 4-5{08}  20000 м    4/0 средняя, верхняя 
[Ac trans|Ci sp]
+13.2 +2.8 49 +13  1020.8  0.6  751  288    +17.2       
21 17.04.21 050 (СВ) 4-4{06}  20000 м    ясно <0100 м 
+8.7 +2.9 67 +8  1021.7  0.5  751  293           
00 18.04.21 050 (СВ) 4-5{06}  20000 м    5/0 средняя 
[Ac trans]
+6.7 +2.8 76 +5  1021.9  751  295           
03 18.04.21 060 (СВ) 4-5{06}  20000 м    ясно 
+5.2 +1.6 78 +4  1022.1  0.1  751  297           
06 18.04.21 060 (СВ) 5-6{08}  20000 м    ясно 
+9.5 +1.7 58 +8  1022.1  0.3  751  292  +4.9        влажная 
09 18.04.21 040 (СВ) 5-8{09}  20000 м    3/0 верхняя 
[Ci fib]
+15.9 +1.7 38 +16  1021.1  -0.6  751  286           
12 18.04.21 060 (СВ) 7-9{13}  20000 м    5/0 верхняя 
[Ci sp]
+17.5 +1 33 +17  1020.6  -0.3  751  284           
15 18.04.21 060 (СВ) 6-8{10}  20000 м    3/0 верхняя 
[Ci sp]
+18.3 +1.1 31 +18  1020  -0.6  750  283           
18 18.04.21 060 (СВ) 2-3{08}  20000 м    ясно 
+13.4 +1.5 44 +14  1021.1  0.7  751  288    +18.9       
21 18.04.21 040 (СВ) 4-5{07}  20000 м    ясно <0100 м 
+8.6 +0.9 58 +7  1021.9  0.4  751  293           
00 19.04.21 060 (СВ) 3-4{05}  20000 м    ясно 
+5.2 +0.3 71 +4  1021.8  -0.3  751  297           
03 19.04.21 050 (СВ) 5-6{06}  20000 м    ясно 
+4 -1.6 67 +2  1021.8  0.1  751  298           
06 19.04.21 050 (СВ) 6-7{08}  20000 м    ясно 
+8.5 -1.3 50 +7  1021.3  751  294  +3.6        влажная 
09 19.04.21 050 (СВ) 7-10{11}  20000 м    ясно <0100 м 
+15.1 -2.6 29 +14  1020.5  -0.3  751  287           
12 19.04.21 080 (В) 5-8{11}  19000 м    1/1 1000 м 
[Cu hum]
+16.7 -4.7 23 +17  1019.9  -0.5  750  285           
Время (UTC), дата Ветер
(°,м/с) 
Видим.   Явления Облачность Т
(°С)
Тd
(°С)
f(%) Тe
(°С)
Pmin
(гПа)
dP
(гПа)
Po
(мм)
O2
(г/м3)
Тmin Tmax R s Состояние
почвы

Для получения пояснительной информации подведите курсор к названию столбца.

ПОГОДА в Лаукуве - архив

Всё, что Вы хотите узнать о погоде в Лаукуве - удобно и подробно!

Выберите нужную дату (начиная с 1 января 2019* года) и нажмите кнопку "Найти".
Будут отображены архивные сводки погоды по пункту Лаукува, начиная с указанной даты.


Отображать данные в формате CSV (для использования в таблицах Excel)


Внимание! Наш архив погоды предназначен исключительно для личного некоммерческого использования в познавательных целях. Если Вам необходимы официальные справки о состоянии погоды (для производственных, юридических, коммерческих и т.п. целей), обращайтесь в органы Росгидромета.

*Примечание: данная дата относится к архиву по метеостанциям СССР (Россия, СНГ, Балтия).
Архив по метеостанциям Зарубежной Европы и Азии (кроме Китая) хранится 10 дней, по другим регионам земного шара (Китай, Африка, Америка, Австралия, Океания) - 1 день.

Лаукува - район местоположения метеостанции


Название, широта, долгота, высота метеостанции:
Лаукува 55.6°ш. 22.2°д. 166 м над ур. моря [Литва]

Дополнительная информация

В oтличие oт бoльшинства пoгoдных сайтoв мы публикуем пoдрoбную метеoинфoрмацию в детальнoм прoфессиoнальнoм фoрмате.

Характеристики температуры и влажнoсти вoздуха измеряются на высoте 2 м в тени вдали oт зданий и деревьев.
Скoрoсть ветра измеряется на высoте 10 м (на урoвне рoста челoвека скoрoсть ветра ниже в 1.5-2 раза). Если метеoстанция нахoдится в гoрoде или в лесу, тo скoрoсть ветра занижена на 2-4 м/с пo сравнению с oткрытым местoм. Скoрoсть ветра над акватoриями крупных рек и oзёр, а также на вершинах хoлмoв на 2-5 м/с выше, чем в oбычных услoвиях.
Атмoсфернoе давление в разных тoчках местнoсти мoжет значительнo oтличаться oт давления на метеoстанции, в зависимoсти oт услoвий рельефа (при пoдъёме на 10 м давление пoнижается примернo на 1 мм рт.ст.).